Вернуться в каталог

COSMOS 1275 DEB

АктивенPO
NORAD 39938·DEBRIS·🇷🇺 Russia

Запущен Jun 4, 1981 с Plesetsk Cosmodrome

Loading…

Ближайшие Пролёты (ближайшие 24 часа)

TLE

СвежийSource: Space-Track

Эпоха: Sep 13, 2026, 09:49 UTC

1 39938U 81053MY  26256.40962453  .00000696  00000-0  73704-3 0  9998
2 39938  83.0684  50.5981 0132795  86.0782 275.5541 13.69232880611312

Отслеживайте COSMOS 1275 DEB в реальном времени с AllMySat

Download on the App Store